"Pseudo-MPEC" for C3ZPHV2

Created 2020 Nov 23 13:07:14 UT using Find_Orb

Click here for an explanation of pseudo-MPECs

 
 Astrometry: 
     C3ZPHV2  C2020 11 20.22515105 31 45.49 +54 57 46.0    ~BK6M 20.39GVNEOCPG96
     C3ZPHV2  C2020 11 20.23038605 31 44.83 +54 57 39.2    ~BK6M 19.95GVNEOCPG96
     C3ZPHV2  C2020 11 20.23563105 31 43.96 +54 57 31.9    ~BK6M 20.49GVNEOCPG96
     C3ZPHV2  C2020 11 20.24088305 31 43.19 +54 57 24.8    ~BK6M 20.51GVNEOCPG96
     C3ZPHV2 KC2020 11 20pAKBvA!w(20V;PkO:ec?ZYcAXU9F20B]R^3M9d/ueAK0q@e6)*pH858
     C3ZPHV2 KC2020 11 208t#Astrometry+A5o=M!!:(;%7ATVbYA3y,I\jtx82M;qH+geXhf858
     C3ZPHV2 KC2020 11 20rq'Qb+??e`,FV!6*SOjgNuTm-wZZH;10q)]6iCT5S/L]c!SiEAru858
     C3ZPHV2 HC2020 11 20.44573705 31 13.04 +54 52 39.9    ~BKB7 20.90GVNEOCPI52
     C3ZPHV2 HC2020 11 20.44911705 31 12.47 +54 52 34.0    ~BKB7       VNEOCPI52
     C3ZPHV2 HC2020 11 20.44988405 31 12.20 +54 52 33.7    ~BKB7       VNEOCPI52
     C3ZPHV2 HC2020 11 20.45065105 31 12.02 +54 52 32.1    ~BKB7       VNEOCPI52
     C3ZPHV2 1C2020 11 20.87160 05 30 13.68 +54 42 31.0    ~BKLb 21.5 VVNEOCP033
     C3ZPHV2 1C2020 11 20.87369 05 30 13.34 +54 42 28.0    ~BKLb 21.0 VVNEOCP033
     C3ZPHV2 1C2020 11 20.87577 05 30 13.09 +54 42 24.9    ~BKLb 21.1 VVNEOCP033
     C3ZPHV2 1C2020 11 20.87807 05 30 12.74 +54 42 22.1    ~BKLb 21.4 VVNEOCP033
     C3ZPHV2 1C2020 11 20.88110 05 30 12.30 +54 42 17.7    ~BKLb 21.4 VVNEOCP033
     C3ZPHV2 bC2020 11 20ue(Lybt;N_3yhJ5XmiGGys*N^_N%1ITwQ'Predacted;nUkv:Xu)L01
     C3ZPHV2 bC2020 11 20(0;vybwR6click'Hd?.8x?;Spm4Gail7*K2gSB()uj(Z.Py'^k$-L01
     C3ZPHV2 KC2020 11 21.27492705 29 16.52 +54 32 59.1    ~BL77 20.31GVNEOCPI52
     C3ZPHV2 KC2020 11 21.27799705 29 16.04 +54 32 54.3    ~BL77 20.75GVNEOCPI52
     C3ZPHV2 KC2020 11 21.28106705 29 15.57 +54 32 49.8    ~BL77 20.99GVNEOCPI52
     C3ZPHV2 KC2020 11 22.23412505 27 00.76 +54 09 38.0    ~BM5q 20.70GVNEOCPI52
     C3ZPHV2 KC2020 11 22.23566005 27 00.59 +54 09 35.5    ~BM5q 20.97GVNEOCPI52
     C3ZPHV2 KC2020 11 22.23719405 27 00.31 +54 09 32.5    ~BM5q 20.71GVNEOCPI52
     C3ZPHV2 KC2020 11 23.23264005 24 39.66 +53 44 42.2    ~BN67 20.83GVNEOCPI52
     C3ZPHV2 KC2020 11 23.24417205 24 37.88 +53 44 25.0    ~BN67 20.76GVNEOCPI52
     C3ZPHV2 KC2020 11 23YNGu;6hRt9daF`CP[hVcH:GFR9L0F__,Zov!hereq;?2b%V8for`H21
     C3ZPHV2 KC2020 11 23DH$lgrngJ-9[-Rta^TVZ1W+LexplanationPhUtZo]sdJkXkp?^+H21

Station data:
(033) Karl Schwarzschild Observatory, Tautenburg  (N50.980140 E11.711240)
   Germany. 1.3-m Schmidt.
(858) Tebbutt Observatory, Edgewood  (N35.093872 W106.220000)  US/New Mexico.
(G96) Mt. Lemmon Survey  (N32.442754 W110.788720)  US/Arizona.  Observers T.
   A. Pruyne, B. M. Africano, E. J. Christensen, G. A. Farneth, D. C. Fuls,
   A. R. Gibbs, A. D. Grauer, H. Gröller, J. A. Johnson, R. A. Kowalski, S.
   M. Larson, G. J. Leonard, D. Rankin, R. L. Seaman, F. C. Shelly. 1.5-m
   reflector + 10K CCD.
(H21) Astronomical Research Observatory, Westfield  (N39.483057 W87.968270)
   US/Illinois. 0.76-m f/3.0 astrograph + CCD.
(I52) Steward Observatory, Mt. Lemmon Station  (N32.442547 W110.788920)
   US/Arizona.  Observers T. A. Pruyne, B. M. Africano, E. J. Christensen, G.
   A. Farneth, D. C. Fuls, A. R. Gibbs, A. D. Grauer, H. Gröller, J. A.
   Johnson, R. A. Kowalski, S. M. Larson, G. J. Leonard, D. Rankin, R. L.
   Seaman, F. C. Shelly. 1.0-m reflector + CCD.
(L01) Višnjan Observatory, Tičan  (N45.290900 E13.749300)  Croatia.
   Observers K. Korlević, E. Pettarin. Measurer E. Pettarin. 1.0-m f/2.9
   reflector + CCD.

Orbital elements:  C3ZPHV2
   Perihelion 2020 Aug 10.540212 +/- 1.36 TT = 12:57:54 (JD 2459072.040212)
Epoch 2020 Nov 23.0 TT = JDT 2459176.5   Earth MOID: 0.4943   AutoNEOCP
M  24.50103694 +/- 0.38             (J2000 ecliptic)
n   0.23454993 +/- 0.00608          Peri.   76.51500 +/- 0.9
a   2.60402909 +/- 0.0451           Node   278.57348 +/- 0.6
e   0.5090300 +/- 0.00432           Incl.   27.08766 +/- 0.9
P   4.20                   H 19.4   G  0.15   U  9.3  
q 1.27850010 +/- 0.016    Q 3.92955808 +/- 0.0753
From 28 observations 2020 Nov. 20-23; mean residual 0".41
Residuals in arcseconds: 
201120 G96  .10-  .25-    201120 I52  1.0-  .12-    201121 I52  .15+  .06+    
201120 G96  .80+  .06+    201120 033  .26-  .11-    201122 I52  .03+  .45+    
201120 G96  .09-  .10-    201120 033  .59-  .19-    201122 I52  .51+  .16+    
201120 G96  .11-  .05-    201120 033  .15-  .39-    201122 I52  .02+  .62-    
201120 858  .16+  .16-    201120 033  .29-  .01+    201123 I52  .37+  .06+    
201120 858  .05-  .22-    201120 033  .30-  .16-    201123 I52  .48-  .03-    
201120 858  .11-  .41+    201120 L01  .28-  .37+    201123 H21  .25+  .04+    
201120 I52  1.5+  .66+    201120 L01  .29-  .23-    201123 H21  .22-  .14-    
201120 I52  .89+  .41-    201121 I52  .53+  .68+    
201120 I52  .46-  .38+    201121 I52  .29+  .22+    

Ephemerides (geocentric):
Date (UTC) HH   RA              Dec         delta   r     elong  mag " sig PA
---- -- -- --  -------------   -----------  ------ ------ -----  --- ---- ---
2020 11 23 13  05 23 55.286   +53 36 49.71  .77598 1.6731 142.9 21.0 .109  36
2020 11 23 14  05 23 49.418   +53 35 45.97  .77602 1.6734 143.0 21.0 .107  34
2020 11 23 15  05 23 43.552   +53 34 42.17  .77606 1.6736 143.0 21.0 .106  32
2020 11 23 16  05 23 37.687   +53 33 38.30  .77610 1.6739 143.0 21.0 .104  30
2020 11 23 17  05 23 31.823   +53 32 34.37  .77614 1.6741 143.1 21.0 .102  28
2020 11 23 18  05 23 25.960   +53 31 30.37  .77619 1.6744 143.1 21.0 .101  25
2020 11 23 19  05 23 20.099   +53 30 26.31  .77623 1.6746 143.2 21.0 .099  23
2020 11 23 20  05 23 14.240   +53 29 22.18  .77627 1.6749 143.2 21.0 .098  20
2020 11 23 21  05 23 08.382   +53 28 17.98  .77631 1.6751 143.3 21.0 .097  17
2020 11 23 22  05 23 02.525   +53 27 13.72  .77636 1.6754 143.3 21.0 .096  14
2020 11 23 23  05 22 56.670   +53 26 09.39  .77640 1.6756 143.4 21.0 .095  11
2020 11 24 00  05 22 50.816   +53 25 05.00  .77645 1.6759 143.4 21.0 .095   8
2020 11 24 01  05 22 44.964   +53 24 00.54  .77649 1.6762 143.5 21.0 .094   4
2020 11 24 02  05 22 39.113   +53 22 56.02  .77654 1.6764 143.5 21.0 .094   1
2020 11 24 03  05 22 33.264   +53 21 51.43  .77658 1.6767 143.6 21.0 .094 177
2020 11 24 04  05 22 27.416   +53 20 46.78  .77663 1.6769 143.6 21.0 .095 173
2020 11 24 05  05 22 21.570   +53 19 42.06  .77667 1.6772 143.6 21.0 .096 170
2020 11 24 06  05 22 15.726   +53 18 37.28  .77672 1.6774 143.7 21.0 .097 166
2020 11 24 07  05 22 09.883   +53 17 32.43  .77677 1.6777 143.7 21.0 .099 162
2020 11 24 08  05 22 04.042   +53 16 27.52  .77682 1.6779 143.8 21.0 .101 158
2020 11 24 09  05 21 58.203   +53 15 22.54  .77686 1.6782 143.8 21.0 .104 155
2020 11 24 10  05 21 52.365   +53 14 17.50  .77691 1.6784 143.9 21.0 .107 151
2020 11 24 11  05 21 46.529   +53 13 12.39  .77696 1.6787 143.9 21.0 .111 148
2020 11 24 12  05 21 40.695   +53 12 07.22  .77701 1.6789 144.0 21.0 .115 144
2020 11 24 13  05 21 34.862   +53 11 01.98  .77706 1.6792 144.0 21.0 .119 141
2020 11 24 14  05 21 29.031   +53 09 56.68  .77711 1.6794 144.1 21.0 .124 138
2020 11 24 15  05 21 23.202   +53 08 51.32  .77716 1.6797 144.1 21.0 .129 135
2020 11 24 16  05 21 17.375   +53 07 45.89  .77721 1.6799 144.1 21.0 .135 132
2020 11 24 17  05 21 11.550   +53 06 40.40  .77726 1.6802 144.2 21.0 .141 130
2020 11 24 18  05 21 05.726   +53 05 34.84  .77731 1.6804 144.2 21.0 .148 127
2020 11 24 19  05 20 59.904   +53 04 29.22  .77736 1.6807 144.3 21.0 .155 125
2020 11 24 20  05 20 54.085   +53 03 23.54  .77741 1.6809 144.3 21.0 .162 123
2020 11 24 21  05 20 48.267   +53 02 17.79  .77747 1.6812 144.4 21.0 .170 121
2020 11 24 22  05 20 42.451   +53 01 11.98  .77752 1.6814 144.4 21.0 .178 119
2020 11 24 23  05 20 36.637   +53 00 06.11  .77757 1.6817 144.5 21.0 .186 117
2020 11 25 00  05 20 30.825   +52 59 00.17  .77763 1.6819 144.5 21.0 .195 115
2020 11 25 01  05 20 25.015   +52 57 54.17  .77768 1.6822 144.5 21.0 .204 114
2020 11 25 02  05 20 19.207   +52 56 48.11  .77773 1.6824 144.6 21.0 .213 112
2020 11 25 03  05 20 13.401   +52 55 41.98  .77779 1.6827 144.6 21.0 .223 111
2020 11 25 04  05 20 07.597   +52 54 35.79  .77784 1.6829 144.7 21.0 .232 109
2020 11 25 05  05 20 01.795   +52 53 29.54  .77790 1.6832 144.7 21.0 .243 108
2020 11 25 06  05 19 55.995   +52 52 23.22  .77796 1.6834 144.8 21.0 .253 107
2020 11 25 07  05 19 50.198   +52 51 16.84  .77801 1.6837 144.8 21.0 .264 106
2020 11 25 08  05 19 44.402   +52 50 10.40  .77807 1.6839 144.9 21.0 .275 104
2020 11 25 09  05 19 38.609   +52 49 03.90  .77813 1.6842 144.9 21.0 .287 103
2020 11 25 10  05 19 32.818   +52 47 57.33  .77818 1.6844 145.0 21.0 .299 102
2020 11 25 11  05 19 27.029   +52 46 50.71  .77824 1.6847 145.0 21.0 .311 101
2020 11 25 12  05 19 21.242   +52 45 44.02  .77830 1.6849 145.0 21.0 .323 101